Location: R�o Medio
(42.4667°N, 3.0167°W)
Time: 03:21:19
(UTC+00:00)

Meteor 1-11 Rocket - Pass Details

Date: 27 February 2020
Orbit: 831 x 916 km, 81.2° (Epoch: 29 March)

Event Time Altitude Azimuth Distance (km) Brightness Sun altitude
Rises 20:48:49 0° 204° (SSW) 3,408 6.9 -31.8°
Reaches altitude 10° 20:51:19 10° 210° (SSW) 2,466 6.2 -32.2°
Maximum altitude 20:56:42 49° 284° (WNW) 1,079 4.5 -33.1°
Drops below altitude 10° 21:02:03 10° 359° (N) 2,451 6.3 -34.0°
Sets 21:04:33 0° 5° (N) 3,387 7.0 -34.5°
